Погода в Еланце

Украина / Николаевская область     47°41′45″N   31°51′14″E
темп.,
°C
ветер,
м/с
пор.,
м/с
влажн.,
%
обл.,
%
осадки,
мм/ч
давл.,
гПа
погр.,
м
22 января, сб
сб2223:00−2з6117267 0.0 1012724
02:00−4з6118050 0.0 1012442
05:00−4з61184100 0.0 1011414
08:00−4зюз5108877 0.0 1012409
11:00−2з567797 0.0 1013730
14:00−1з4673100 0.1 1013791
17:00−4з238181 0.1 101338
20:00−5зсз36875 0.1 1015100
23 января, вс
вс2323:00−6з22955 0.0 101622
02:00−6зсз249793 0.0 101669
05:00−6сз379584 0.1 1017225
08:00−7ссз35946 0.2 1018125
11:00−4ссв357987 0.0 1019483
14:00−2св4573100 0.0 1020888
17:00−3ссв5885100 0.1 1022467
20:00−5ссв61188100 0.1 1024426
24 января, пн
пн2423:00−5ссв71388100 0.0 1025510
02:00−5ссв71385100 0.0 1026565
05:00−5с81483100 0.0 1026582
08:00−6с81680100 0.0 1026587
11:00−5с81582100 0.1 1026686
14:00−5с71285100 0.9 1024633
17:00−5с71293100 1.8 1025581
20:00−6с6128966 2.0 1025450
25 января, вт
вт2523:00−6с5109097 0.1 1025379
02:00−6с5990100 0.2 1025352
05:00−6ссз4895100 0.5 1024384
08:00−7ссз4794100 1.3 1024369
11:00−6с4692100 0.8 1024472
14:00−5ссз3488100 1.3 1023506
17:00−6сз3595100 0.3 1022262
20:00−7сз2496100 0.4 1022166
26 января, ср
ср2623:00−7зсз1196100 0.3 102190
02:00−7з2397100 0.6 1019103
05:00−8сз239581 0.1 101983
08:00−10с119683 0.1 102017
11:00−6ссз238674 0.0 1020327
14:00−5с4582100 0.0 1020647
17:00−6с3788100 0.1 1021358
20:00−9ссз369426 0.1 102298